Tracking 19254 objects as of 21-Oct-2018
HD Live streaming from Space Station
objects crossing your sky now

UNSW-ECO

Track UNSW-ECO now!
10-day predictions
UNSW-ECO is classified as:


NORAD ID: 42723
Int'l Code: 1998-067MC
Perigee: 302.0 km
Apogee: 310.7 km
Inclination: 51.6 °
Period: 90.5 minutes
Semi major axis: 6677 km
RCS: Unknown
Launch date: November 20, 1998
Source: United States (US)
Launch site: TYURATAM MISSILE AND SPACE COMPLEX (TTMTR)

Uplink (MHz):
Downlink (MHz): 436.525/2400.500
Beacon (MHz):
Mode: 4800bps GMSK
Call sign: ON02AU
Status: Active

aabbcc
Your satellite tracking list
Your tracking list is empty




NASA's NSSDC Master Catalog

Two Line Element Set (TLE):
1 42723U 98067MC  18294.53294867  .00121000  16546-4  38202-3 0  9994
2 42723  51.6370  58.1098 0006465 334.8444  25.2247 15.91098274 80640
Source of the keplerian elements: AMSAT